Terminal Aerodrome Forecast
Issued by NWS Cleveland, OH

Home | Current Version | Previous Version | Graphics & Text | Print | Product List | Glossary On
Versions: 1 2 3 4 5 6 7 8 9 10 11 12 13 14 15 16 17 18 19 20 21 22 23 24 25 26 27 28 29
000
FTUS41 KCLE 200725 AAA
TAFCLE
TAF AMD
KCLE 200725Z 2007/2112 04005KT P6SM OVC007
     FM201000 13005KT P6SM SCT007 OVC050
     FM201300 17010KT P6SM SCT020 BKN050
     FM201700 22018G28KT P6SM BKN050
     FM202300 25015G25KT 5SM -SHRA OVC035
      TEMPO 2023/2102 27020G40KT 2SM TSRA OVC020CB
     FM210400 27012KT P6SM BKN080
     FM210900 25012KT P6SM BKN025=

USA.gov is the U.S. government's official web portal to all federal, state and local government web resources and services.